Weather History for Poplar Bluff, MO

Change the Weather History Date:

Saturday, February 23, 2013

  Actual Average Record
Temperature  
Mean Temperature 36 °F -  
Max Temperature 44 °F 52 °F 73 °F (1927)
Min Temperature 27 °F 31 °F 10 °F (1989)
Degree Days  
Heating Degree Days 30    
Moisture  
Dew Point 26 °F    
Average Humidity 71    
Maximum Humidity 89    
Minimum Humidity 58    
Precipitation  
Precipitation 0.00 in - - ()
Sea Level Pressure  
Sea Level Pressure 30.05 in    
Wind  
Wind Speed 5 mph (NW)    
Max Wind Speed 10 mph    
Max Gust Speed -    
Visibility 10 miles    
Events      
Averages and records for this station are not official NWS values.
T = Trace of Precipitation, MM = Missing Value Source: NWS Daily Summary

Daily Weather History Graph

Daily Weather History Graph

Search for Another Location

Airport:

Trip Planner

Search our weather history database for the weather conditions in past years. The results will help you decide how hot, cold, wet, or windy it might be!

Date:

Astronomy

Feb. 23, 2013 Rise Set
Actual Time 6:39 AM CST 5:50 PM CST
Civil Twilight 6:13 AM CST 6:16 PM CST
Nautical Twilight 5:43 AM CST 6:46 PM CST
Astronomical Twilight 5:13 AM CST 7:16 PM CST
Moon 4:02 PM CST (2/23) 5:00 AM CST (2/23)
Length of Visible Light 12h 02m
Length of Day
11h 10m
Waxing Gibbous, 95% of the Moon is Illuminated
Feb 23
Waxing Gibbous
Feb 25
Full
Mar 4
Last Quarter
Mar 11
New
Mar 19
First Quarter

Hourly Weather History & Observations

Time (CST) Temp. Windchill Dew Point Humidity Pressure Visibility Wind Dir Wind Speed Gust Speed Precip Events Conditions
12:53 AM 30.0 °F 26.5 °F 26.1 °F 85% 30.11 in 10.0 mi WNW 3.5 mph - N/A   Clear
1:53 AM 30.0 °F 23.2 °F 24.1 °F 79% 30.10 in 10.0 mi NW 6.9 mph - N/A   Clear
2:53 AM 28.9 °F 21.1 °F 24.1 °F 82% 30.10 in 10.0 mi NW 8.1 mph - N/A   Clear
3:53 AM 28.9 °F 21.1 °F 23.0 °F 78% 30.07 in 10.0 mi NNW 8.1 mph - N/A   Clear
4:53 AM 28.9 °F 20.4 °F 21.9 °F 75% 30.07 in 10.0 mi NNW 9.2 mph - N/A   Clear
5:53 AM 28.0 °F 21.7 °F 21.9 °F 78% 30.07 in 10.0 mi NNW 5.8 mph - N/A   Clear
6:53 AM 27.0 °F 20.5 °F 21.9 °F 81% 30.08 in 10.0 mi NNW 5.8 mph - N/A   Clear
7:53 AM 28.9 °F 23.9 °F 21.9 °F 75% 30.09 in 10.0 mi North 4.6 mph - N/A   Clear
8:53 AM 32.0 °F 26.4 °F 23.0 °F 69% 30.08 in 10.0 mi NNE 5.8 mph - N/A   Clear
9:53 AM 34.0 °F 29.8 °F 23.0 °F 64% 30.08 in 10.0 mi NE 4.6 mph - N/A   Clear
10:53 AM 36.0 °F - 25.0 °F 64% 30.08 in 10.0 mi Calm Calm - N/A   Clear
11:53 AM 37.9 °F 35.5 °F 25.0 °F 60% 30.07 in 10.0 mi Variable 3.5 mph - N/A   Clear
12:53 PM 39.0 °F 34.8 °F 28.0 °F 65% 30.03 in 10.0 mi South 5.8 mph - N/A   Clear
1:53 PM 41.0 °F 36.4 °F 28.9 °F 62% 30.00 in 10.0 mi South 6.9 mph - N/A   Clear
2:53 PM 43.0 °F 37.2 °F 30.0 °F 60% 30.00 in 10.0 mi SSW 10.4 mph - N/A   Clear
3:53 PM 44.1 °F 41.5 °F 30.0 °F 58% 29.99 in 10.0 mi South 4.6 mph - N/A   Clear
4:53 PM 44.1 °F 40.1 °F 30.9 °F 60% 29.99 in 10.0 mi SW 6.9 mph - N/A   Clear
5:53 PM 42.1 °F 39.2 °F 30.0 °F 62% 30.01 in 10.0 mi SW 4.6 mph - N/A   Clear
6:53 PM 39.9 °F 36.7 °F 28.0 °F 63% 30.02 in 10.0 mi NW 4.6 mph - N/A   Clear
7:53 PM 37.0 °F 32.4 °F 28.0 °F 70% 30.04 in 10.0 mi NNW 5.8 mph - N/A   Clear
8:53 PM 35.1 °F 31.0 °F 28.9 °F 78% 30.04 in 10.0 mi NNW 4.6 mph - N/A   Clear
9:53 PM 34.0 °F - 26.1 °F 73% 30.04 in 10.0 mi Calm Calm - N/A   Clear
10:53 PM 30.9 °F - 28.0 °F 89% 30.04 in 10.0 mi Calm Calm - N/A   Clear
11:53 PM 32.0 °F - 27.0 °F 82% 30.05 in 10.0 mi Calm Calm - N/A   Clear